Weather Roundup
Issued by NWS

Home | Current Version | Previous Version | Graphics & Text | Print | Product List | Glossary Off
Versions: 1 2 3 4 5 6 7 8 9 10 11 12 13 14 15 16 17 18 19 20 21 22 23 24 25 26 27 28 29 30 31 32 33 34 35 36 37 38 39 40 41 42 43 44 45 46 47 48 49 50

000
NZUS93 KARX 240259
HRRWXR

CURRENT HOURLY OBSERVATIONS ACROSS
MUCH OF THE UPPER MISSISSIPPI VALLEY
NATIONAL WEATHER SERVICE LA CROSSE WI
1000 PM CDT SAT JUL 23 2016


...SOUTHEAST MINNESOTA...


CITY           SKY/WX    TMP DP  RH WIND       PRES   REMARKS
ROCHESTER      CLOUDY    72  70  93 SE9       29.84R
ROCHESTER/MAYO CLOUDY    73  72  96 SE8       29.84R
WINONA         MOCLDY    73  70  88 CALM      29.83R
AUSTIN         CLOUDY    73  70  88 SE6       29.82R
ALBERT LEA     CLOUDY    75  73  94 SE3       29.81R
DODGE CENTER   CLOUDY    73  70  88 SE8       29.83R
PRESTON        PTCLDY    70  67  91 S7        29.85S
OWATONNA       PTCLDY    75  70  83 SE7       29.81R
FARIBAULT      CLOUDY    75  72  88 SE7       29.80S
$$

...ELSEWHERE IN MINNESOTA...


CITY           SKY/WX    TMP DP  RH WIND       PRES   REMARKS
MINNEAPOLIS    PTCLDY    75  71  87 SE7       29.78S
INTNL FALLS    MOCLDY    71  66  84 SE5       29.74R
DULUTH         MOCLDY    63  59  87 SE9       29.82F
RED WING       CLOUDY    75  70  83 SE8       29.80R
REDWOOD FALLS  CLEAR     81  76  84 S9        29.73S
MANKATO        PTCLDY    77  70  78 SE10      29.78S
WORTHINGTON    CLEAR     79  77  94 S7        29.80R
FAIRMONT       CLEAR     77  75  94 SE5       29.77S
$$

...SOUTHWEST WISCONSIN...


CITY           SKY/WX    TMP DP  RH WIND       PRES   REMARKS
LA CROSSE      CLEAR     74  69  85 S8        29.82R
PRAIRIE DU CHI CLOUDY    70  69  96 SE3       29.84S
BOSCOBEL       CLOUDY    72  70  93 CALM      29.86S
LONE ROCK      NOT AVBL
PLATTEVILLE    CLOUDY    71  71 100 SE10      29.89R
FORT MC COY    CLOUDY    71  68  92 E3        29.85R
MAUSTON-NEW LI CLOUDY    72  70  95 SE9       29.86S
VIROQUA        FAIR      69  69 100 SE10      29.86F
WIS DELLS      NOT AVBL
$$

...ELSEWHERE IN WISCONSIN...


CITY           SKY/WX    TMP DP  RH WIND       PRES   REMARKS
MILWAUKEE      TSTM      73  69  87 S9        29.94F
MADISON        CLOUDY    72  70  93 SE7       29.89F
GREEN BAY      CLOUDY    75  75 100 S6        29.90R
EAU CLAIRE     NOT AVBL
BLACK RVR FLS  FAIR      69  69 100 CALM      29.84S
MEDFORD        CLOUDY    67  67 100 SE3       29.88S
WAUSAU         LGT RAIN  70  67  90 E6        29.87S
WIS RAPIDS     CLOUDY    71  67  87 S5        29.88S
MARSHFIELD     MOCLDY    70  66  87 CALM      29.86F
RICE LAKE      CLOUDY    70  67  92 SE5       29.86R
$$

...NORTHEAST IOWA...


CITY           SKY/WX    TMP DP  RH WIND       PRES   REMARKS
WATERLOO       CLEAR     76  72  87 SE12      29.81R
DUBUQUE        MOCLDY    72  70  93 SE14      29.89R
DECORAH        CLOUDY    70  70 100 VRB6      29.84R
MASON CITY     CLOUDY    78  77  96 SE8       29.82R
CHARLES CITY   PTCLDY    73  73 100 SE8       29.83R
OELWEIN        CLEAR     73  72  94 SE12      29.84R
$$

...ELSEWHERE IN IOWA...


CITY           SKY/WX    TMP DP  RH WIND       PRES   REMARKS
DES MOINES     PTCLDY    84  77  79 S7        29.82R HX  94
IOWA CITY      CLEAR     78  76  93 E6        29.87R
FORT DODGE     CLOUDY    82  75  78 S12       29.80R
MARSHALLTOWN   CLEAR     82  78  88 S8        29.82R HX  91
CEDAR RAPIDS   CLEAR     75  75 100 S5        29.85R
$$

...NORTHERN ILLINOIS...


CITY           SKY/WX    TMP DP  RH WIND       PRES   REMARKS
CHICAGO-OHARE  TSTM      73  69  87 N10       29.99R
CHICAGO-MIDWAY CLOUDY    78  69  73 N6        29.96R
MOLINE         CLOUDY    81  71  71 SE13      29.91R
ROCKFORD       TSTM      73  70  90 SE3       29.94F
PEORIA         PTCLDY    84  78  82 S9        29.94R HX  95
$$

NOTE: "FAIR" INDICATES FEW OR NO CLOUDS BELOW 12,000 FEET WITH NO
SIGNIFICANT WEATHER AND/OR OBSTRUCTIONS TO VISIBILITY. WIND
SPEEDS ARE IN MILES-PER-HOUR.




USA.gov is the U.S. government's official web portal to all federal, state and local government web resources and services.